Theta_e
309 304 298 302 307 309 312 318 316 317 322 327 324 331 330 342 346 347 344 343 345 350 350 350 350 350 351 351 350 350 350 350
305 301 305 308 310 317 313 316 316 317 315 327 335 332 340 346 346 344 342 340 349 349 349 348 348 349 349 349 348 349 349 349
301 301 307 311 314 315 311 310 313 316 316 322 333 341 344 344 344 341 339 341 343 350 349 349 349 349 349 349 350 350 350 350
298 305 313 313 316 312 311 312 314 316 315 319 336 337 341 343 341 343 342 342 343 349 349 349 349 349 350 351 351 351 351 351
303 306 308 311 315 311 312 312 313 318 314 322 331 336 341 342 341 342 342 341 341 342 346 350 351 351 351 351 352 352 353 353
304 304 308 314 314 313 312 311 321 323 314 318 330 339 341 341 338 337 338 339 338 340 340 342 343 351 351 351 352 352 353 352
298 306 307 315 310 312 315 317 316 319 320 328 335 339 336 334 332 331 336 334 336 337 337 341 342 345 351 351 351 352 352 354
299 310 309 311 314 309 314 315 313 318 327 332 336 333 331 328 327 328 330 333 335 335 337 338 345 342 342 343 344 346 346 344
302 311 314 311 314 311 313 310 314 317 326 331 332 330 329 326 326 327 330 333 335 334 336 337 337 338 339 341 341 342 342 341
303 306 313 312 310 310 314 311 319 322 329 329 328 327 327 326 326 323 325 330 333 335 334 334 334 336 338 337 337 337 337 338
303 303 312 316 310 312 311 315 321 323 326 325 326 326 327 327 326 325 325 328 330 332 332 333 329 333 332 333 334 335 337 340
303 304 315 314 311 311 310 318 320 321 320 323 323 324 324 324 322 325 326 327 329 330 331 331 330 328 330 331 333 335 339 346
302 309 311 314 306 306 313 318 318 319 320 320 320 321 321 322 321 323 326 328 328 329 330 328 329 328 328 333 336 338 344 346
300 309 312 313 305 308 316 316 315 318 319 320 318 320 320 321 321 321 325 325 326 330 329 327 329 331 331 337 342 343 346 341
300 303 305 307 303 307 315 316 314 316 318 319 319 318 318 320 321 321 322 324 324 327 328 328 331 337 340 344 344 342 341 336
294 298 301 304 306 306 313 314 314 315 316 318 318 319 320 317 321 321 322 325 325 328 331 330 336 343 343 344 343 340 337 334
295 299 300 300 306 305 311 312 311 313 314 316 317 321 321 318 319 319 323 325 325 332 334 333 339 342 340 341 338 335 333 330
296 299 303 302 304 307 307 310 311 312 313 315 317 317 318 313 316 319 322 326 326 331 335 336 341 342 340 339 334 331 329 328
295 298 300 303 299 305 307 309 309 310 314 315 316 315 316 313 316 319 321 326 327 330 334 338 339 339 334 332 328 326 324 325
297 293 289 302 294 299 306 308 311 310 311 311 314 316 316 316 316 319 321 326 329 331 333 338 344 341 338 338 332 326 324 325
Wind_Speed
4 3 2 4 1 4 3 1 3 4 5 4 3 6 8 8 13 11 7 6 7 15 14 14 13 12 11 10 9 9 9 8
4 1 4 4 5 4 4 4 6 3 6 4 2 11 8 13 12 11 7 5 11 14 14 13 13 12 11 11 10 10 9 8
2 3 4 5 3 5 7 2 4 3 4 5 6 11 18 15 11 12 7 6 8 15 15 14 14 13 12 12 10 10 9 8
2 3 4 4 5 7 4 3 2 5 7 2 11 15 13 12 11 9 11 7 7 14 14 13 13 12 11 9 9 8 7 6
3 4 4 3 5 8 7 6 1 6 5 3 7 9 13 10 7 7 6 6 5 6 10 13 12 11 10 9 8 8 6 6
2 0 5 1 1 4 10 2 5 6 7 6 10 12 11 9 6 5 4 5 6 5 5 5 6 12 11 10 9 7 7 7
5 3 5 6 6 3 2 11 2 4 6 12 18 14 12 9 4 3 4 4 5 6 6 6 5 6 9 11 10 10 9 9
6 4 4 4 5 10 6 10 1 6 12 19 19 16 15 12 10 6 7 7 6 6 6 6 6 5 5 5 4 5 5 5
7 11 10 3 6 7 11 7 9 21 20 22 21 16 15 13 15 18 11 7 9 7 6 7 5 4 3 3 3 3 5 4
10 10 8 6 6 7 15 7 15 22 25 22 22 18 16 15 13 8 10 12 10 9 7 7 4 4 4 4 3 3 4 3
14 10 12 10 10 5 15 1 15 16 19 21 20 19 16 17 14 12 12 12 12 11 10 9 6 4 4 5 4 4 4 5
10 5 8 12 3 8 7 9 17 17 17 18 20 20 15 12 14 14 15 14 13 14 12 9 8 6 6 4 5 4 3 4
3 3 3 10 4 15 7 14 18 19 16 15 18 16 18 18 15 17 15 18 16 15 13 11 12 9 5 5 5 5 5 5
5 6 3 11 13 8 18 20 18 20 17 17 17 21 18 18 17 16 14 15 14 15 16 14 12 10 7 7 4 5 5 5
8 5 4 5 7 5 14 19 20 19 19 19 16 13 15 17 19 17 17 15 14 16 16 16 12 9 8 9 6 6 7 6
5 3 2 8 11 8 18 21 23 20 18 19 19 25 21 17 17 15 16 17 16 15 16 14 8 6 4 5 5 5 5 5
7 8 3 4 8 14 21 14 15 16 17 19 22 24 18 12 15 11 15 16 17 15 11 9 4 5 2 5 4 3 3 7
9 5 4 6 6 5 11 22 19 20 18 21 22 16 16 10 15 17 19 18 17 17 12 13 10 6 4 5 3 3 4 4
10 6 3 2 6 3 6 8 10 9 18 19 23 23 20 14 19 19 21 20 19 18 17 15 7 6 4 6 4 4 3 4
6 2 3 3 5 5 5 11 15 21 17 21 23 20 19 20 16 20 20 18 19 18 17 13 15 11 15 12 10 5 6 5
Wind_Direction
100 112 158 182 287 70 360 243 312 114 70 97 132 95 141 126 130 113 109 128 160 145 140 142 142 142 143 142 139 135 133 135
75 344 256 206 216 186 161 324 23 89 65 53 237 138 132 125 122 116 120 138 148 143 142 145 145 146 148 149 148 146 146 150
96 245 253 244 247 189 132 96 355 334 79 90 124 106 130 135 132 134 132 155 146 150 153 153 152 154 156 157 155 155 159 166
270 240 255 249 225 146 100 98 107 84 93 63 126 133 141 140 142 147 154 159 158 159 158 157 159 160 160 159 162 167 172 179
266 280 311 258 190 129 127 123 143 162 84 84 146 151 139 133 126 143 152 140 141 153 166 166 165 167 168 171 180 189 196 203
231 57 286 130 1 150 114 138 125 163 144 185 180 150 120 114 111 126 151 155 152 158 155 160 173 178 180 187 197 203 208 211
268 184 224 182 105 329 95 134 239 213 132 152 142 130 122 123 105 127 171 174 164 164 171 176 182 193 190 195 205 214 217 222
247 248 252 117 101 155 122 161 301 90 91 131 139 146 151 164 171 179 191 193 184 180 180 175 189 194 192 209 211 216 214 213
263 228 257 281 138 162 128 216 219 153 149 152 154 163 169 174 180 186 191 187 187 189 186 184 209 186 199 205 223 229 224 219
257 230 203 202 140 165 176 224 165 160 159 156 164 171 176 178 190 179 183 191 185 191 187 202 207 191 195 194 218 233 238 233
247 255 206 156 185 173 200 311 140 151 158 166 171 177 183 183 181 183 187 191 192 186 194 200 209 201 193 206 204 211 219 214
278 270 165 161 120 128 190 161 148 167 169 179 180 184 181 184 186 184 184 191 187 194 195 190 201 197 204 201 202 201 218 213
292 120 100 102 108 224 155 161 164 179 185 179 193 188 192 189 190 186 195 190 185 192 191 190 194 200 198 214 185 186 177 164
273 117 230 130 236 228 164 157 181 186 190 196 198 199 196 193 196 191 187 193 190 192 192 194 193 193 197 211 187 177 165 154
327 198 101 132 253 207 177 171 183 191 195 200 206 215 208 202 196 189 188 192 192 195 197 198 194 193 188 183 162 170 150 163
276 295 121 198 237 186 183 185 188 192 195 205 208 215 212 207 203 194 190 190 192 196 199 198 187 171 149 158 145 151 155 147
255 258 248 251 221 199 198 195 189 190 202 210 218 215 212 211 216 188 195 191 191 187 187 173 152 153 137 171 151 133 131 132
291 329 160 304 287 227 185 206 201 193 199 214 226 218 215 201 207 198 196 195 188 188 174 182 179 181 152 145 114 115 124 153
231 337 318 28 321 207 192 199 219 233 222 219 219 214 211 203 205 205 200 189 190 187 182 184 149 116 89 82 81 114 156 152
243 135 218 83 272 300 201 230 221 223 217 224 224 223 223 216 210 210 208 190 190 187 183 174 173 169 167 181 173 199 160 151